Wind_Speed
106 113 116 121 125 130 125 122 109 106 104 97 89 86 84 81 77 74 67 62 55 51 46 42 39 40 41 41 40 40 43 45 45 45 46 46 47 49 50 53 55 58 61 62
115 118 120 121 130 130 127 119 107 105 104 98 88 86 84 79 74 70 65 61 59 52 44 42 38 40 39 39 38 40 41 42 44 44 44 45 45 46 48 49 50 53 53 54
118 118 120 124 124 124 123 114 107 105 101 93 88 85 85 76 73 68 62 60 58 52 45 40 39 39 37 37 37 38 39 40 42 42 42 42 42 44 43 43 45 47 48 49
124 118 125 124 124 126 119 111 108 104 98 93 86 85 82 75 72 64 59 57 55 48 45 38 38 39 37 35 35 35 36 38 39 39 40 40 41 41 39 41 42 43 46 49
120 127 133 124 122 121 111 104 103 97 92 89 85 78 78 73 67 62 59 55 50 46 44 40 36 37 36 33 31 33 34 36 36 38 39 39 38 37 37 38 39 41 45 48
125 139 130 122 116 106 102 96 92 87 87 84 77 73 74 70 66 65 59 50 44 46 43 41 34 35 34 30 28 32 34 34 35 37 38 37 36 35 35 35 37 40 40 36
136 142 129 117 111 97 91 86 83 83 80 76 74 72 66 65 63 61 58 51 44 43 42 38 32 33 32 29 29 32 33 33 36 37 37 35 34 33 33 32 33 33 31 26
148 148 122 106 96 93 89 86 83 78 78 75 72 67 64 65 62 59 53 50 44 42 39 34 29 31 31 30 30 32 32 34 37 37 37 34 32 29 28 28 27 26 25 24
150 130 108 97 88 85 83 82 79 76 75 71 67 66 66 64 62 59 52 47 42 38 35 28 27 28 28 31 30 31 32 35 38 38 37 33 28 25 25 22 22 21 21 19
123 106 95 87 83 81 80 77 76 74 72 71 68 67 66 63 59 55 49 43 39 32 30 25 26 27 25 30 30 31 33 37 40 38 35 30 26 23 22 21 23 24 23 22
100 91 88 83 81 80 79 77 75 74 73 71 69 68 64 61 56 53 46 37 34 29 28 25 24 25 24 28 29 31 34 38 40 36 33 28 24 21 20 21 24 26 24 24
89 88 85 81 80 79 78 76 74 73 74 73 69 67 64 60 54 49 41 33 31 29 27 26 22 22 24 27 29 32 35 40 40 35 32 26 22 21 21 22 26 25 27 21
88 84 82 81 80 77 76 75 75 73 71 69 70 66 64 60 54 45 35 32 29 30 28 27 22 22 23 26 29 34 38 42 40 35 32 26 22 21 24 26 28 27 23 16
83 84 81 80 79 77 75 76 74 73 69 67 65 65 63 60 49 42 39 33 32 31 31 29 24 25 24 26 30 36 40 44 42 37 33 27 22 21 22 31 30 27 21 16
83 82 80 79 78 77 75 74 73 72 71 68 63 61 60 53 46 44 41 36 32 32 33 30 27 26 25 27 32 37 43 45 44 39 35 29 24 22 23 31 27 26 21 17
82 80 79 80 78 76 74 72 71 73 69 65 61 59 52 47 45 44 41 38 34 34 32 31 31 26 26 28 32 39 45 47 45 40 37 32 26 24 24 27 26 24 23 20
79 80 79 78 75 73 72 71 71 70 65 60 58 54 49 48 47 45 41 36 35 33 30 33 33 29 29 31 34 41 47 49 47 43 40 36 31 25 28 27 26 25 22 21
79 78 75 74 73 72 71 71 70 66 61 58 53 50 49 49 48 46 40 35 31 28 27 31 35 33 32 34 36 43 49 52 50 46 43 40 35 31 26 27 28 27 27 25
76 73 72 71 71 71 71 69 66 63 59 56 50 50 50 50 49 45 40 31 28 26 27 31 37 37 36 37 38 43 51 54 52 50 46 44 39 36 32 30 29 30 30 32
73 71 70 70 70 69 67 64 63 62 58 50 48 49 49 48 46 40 34 27 23 24 28 31 37 40 40 40 42 45 52 57 55 53 50 47 45 41 39 37 36 34 34 35
71 69 68 68 66 63 62 62 60 58 53 49 48 47 47 44 40 36 30 23 20 23 27 33 39 43 43 43 44 46 52 59 59 56 53 50 48 46 44 43 42 40 37 36
68 66 64 63 61 61 60 59 57 53 49 49 48 46 46 43 33 31 28 23 21 22 28 33 39 45 46 46 47 49 51 58 61 59 57 54 51 49 48 46 46 42 39 38
63 61 60 59 59 59 58 56 53 50 49 47 47 47 44 36 32 27 24 23 19 22 27 33 39 46 49 49 50 51 51 57 62 63 60 58 56 53 52 51 49 46 45 44
59 58 57 58 58 56 55 53 51 49 47 47 45 44 40 33 29 25 23 21 18 21 27 32 38 46 50 50 51 52 52 56 61 64 63 61 59 57 55 55 53 52 49 48
57 57 56 56 55 53 52 51 50 48 46 46 45 40 34 31 26 23 19 19 18 21 26 30 36 42 49 51 51 52 53 54 60 63 64 64 62 60 60 59 57 55 55 55
55 54 53 52 52 51 51 50 48 47 46 46 41 36 32 28 24 20 18 17 17 20 24 28 33 38 46 52 52 52 54 53 58 63 64 65 64 62 62 61 59 59 59 59
52 51 50 50 51 50 49 49 48 46 45 42 36 31 29 25 22 19 17 16 16 18 22 27 31 35 43 51 53 53 55 53 56 59 63 66 66 65 63 63 63 63 63 63
Wind_Direction
332 332 333 336 336 335 335 335 331 329 329 326 326 324 323 322 323 323 321 319 317 310 302 291 280 271 265 259 256 255 254 252 247 246 247 247 248 248 247 247 247 249 252 255
333 332 333 333 333 332 332 330 328 328 326 325 324 323 322 321 322 322 320 318 316 310 300 290 281 272 266 260 256 255 254 252 246 245 244 244 244 246 247 248 250 253 254 257
331 331 331 331 330 328 328 327 324 324 324 323 322 322 320 319 321 321 318 316 312 308 298 288 281 274 265 259 254 252 252 247 245 242 242 242 242 243 244 246 250 254 258 262
329 327 328 328 327 327 326 323 322 322 322 321 320 320 316 319 320 319 316 315 310 304 295 286 280 274 268 258 254 253 247 242 242 239 238 237 239 241 242 247 254 259 265 267
325 327 328 325 324 324 322 321 318 320 319 318 318 318 314 317 318 317 316 314 308 299 292 286 277 271 266 258 253 248 240 238 237 232 230 232 233 237 243 251 260 265 268 270
321 324 324 320 319 320 318 319 318 319 317 316 315 316 315 316 317 318 316 312 306 297 291 287 276 268 264 256 249 241 236 234 230 225 225 227 230 237 245 255 264 269 268 265
319 323 320 318 317 318 318 318 318 318 315 315 315 315 315 315 317 316 313 312 306 296 290 285 275 267 260 251 243 238 235 227 225 221 220 223 229 237 248 258 268 266 266 255
320 321 316 315 315 317 318 319 318 316 316 316 316 316 317 316 318 316 314 310 304 295 286 282 274 265 258 247 241 237 231 222 221 217 218 221 230 240 253 264 262 259 251 249
318 318 314 314 316 317 317 317 316 317 318 317 317 317 317 318 317 315 311 308 301 291 286 283 276 265 255 247 239 234 225 219 218 213 217 222 230 243 256 257 248 240 233 243
316 313 314 315 316 316 316 315 317 318 318 318 317 317 317 316 315 312 311 309 299 290 287 285 277 267 255 243 238 230 219 216 215 212 218 222 232 243 251 245 246 236 241 241
313 312 313 314 315 314 313 313 315 316 315 317 317 316 317 315 315 313 312 306 299 295 289 286 276 265 249 236 232 226 216 212 212 213 219 222 232 242 239 233 230 234 228 238
312 312 312 313 313 313 312 313 314 315 316 317 318 318 316 315 316 312 309 304 298 294 288 285 274 264 245 230 225 219 214 210 207 212 218 222 229 240 228 226 217 228 235 240
310 311 311 312 312 311 312 312 312 314 316 317 317 318 314 315 315 310 306 302 297 291 285 280 271 256 241 228 220 214 210 207 205 209 219 221 226 231 215 223 220 232 241 249
308 308 309 310 309 310 311 310 312 314 317 318 317 315 314 313 312 308 305 301 295 286 279 273 264 249 234 227 216 210 207 206 204 206 216 219 222 222 217 212 218 230 239 245
306 307 308 308 308 309 309 310 312 316 317 318 317 313 312 310 309 306 303 299 293 282 272 266 257 246 234 224 215 208 206 206 205 206 215 216 218 222 217 212 217 230 227 230
305 306 306 306 307 307 307 309 314 315 316 315 313 312 310 307 307 303 300 297 291 278 266 256 249 242 231 222 214 207 205 206 207 206 213 215 213 218 212 215 217 216 221 226
304 305 305 305 306 306 307 310 311 311 313 313 313 312 310 309 307 304 303 299 290 278 261 247 240 231 224 219 213 207 205 205 207 207 213 216 212 218 209 199 203 211 219 226
303 303 302 303 304 306 308 310 310 311 313 314 314 312 311 309 308 306 304 300 284 272 254 237 230 223 218 215 211 207 204 206 207 207 211 217 215 214 218 212 207 212 217 219
302 300 301 303 304 306 308 309 310 311 315 316 315 313 311 309 307 306 305 295 280 266 246 233 222 215 213 212 210 208 204 206 207 208 210 215 219 215 216 218 218 216 217 221
299 300 301 303 304 305 306 308 309 311 314 315 314 311 309 308 306 304 300 291 277 257 239 226 218 212 209 209 209 208 204 206 207 208 211 214 220 221 219 221 224 230 234 235
298 300 302 303 303 304 306 307 308 311 313 314 313 311 310 308 307 303 298 288 268 252 235 222 213 209 207 208 208 209 206 206 208 209 212 215 219 222 225 225 228 231 236 239
299 300 300 301 303 303 304 306 308 311 312 312 311 312 311 309 306 300 294 286 264 246 234 223 214 207 206 206 208 209 209 206 209 211 213 216 220 223 227 231 233 233 236 237
297 298 299 300 300 301 303 305 307 309 310 311 312 313 309 308 307 299 290 284 259 242 231 223 214 208 205 206 208 209 210 208 209 211 214 216 221 225 229 232 235 238 237 239
297 297 298 299 299 301 303 304 305 308 309 311 312 312 310 309 305 298 289 278 256 240 228 220 215 211 206 207 208 210 211 211 212 212 215 217 220 225 230 233 236 238 241 243
296 297 297 297 298 300 301 302 304 307 310 312 313 310 309 309 306 300 284 270 255 239 230 222 215 214 208 207 209 211 213 213 214 215 217 220 221 224 229 234 237 240 242 246
294 294 295 296 297 297 299 300 304 307 310 311 311 309 307 307 305 296 283 270 255 237 228 223 216 213 211 209 209 212 215 214 216 218 220 223 225 227 230 234 238 242 245 248
293 293 293 293 294 296 298 300 303 306 307 308 307 307 306 305 303 293 282 268 252 234 224 220 216 211 210 209 211 213 218 217 216 220 223 225 228 231 234 237 240 244 247 250
Height
10557 10540 10522 10505 10491 10476 10462 10449 10442 10434 10418 10408 10395 10382 10369 10361 10350 10339 10329 10320 10315 10309 10301 10296 10293 10292 10290 10290 10291 10293 10297 10300 10304 10308 10312 10316 10320 10325 10329 10333 10336 10340 10343 10347
10538 10517 10500 10486 10467 10454 10444 10433 10424 10414 10404 10390 10377 10364 10352 10344 10334 10324 10312 10303 10296 10291 10286 10281 10279 10278 10277 10277 10278 10279 10282 10286 10289 10294 10298 10303 10308 10312 10315 10320 10324 10328 10331 10334
10509 10489 10477 10467 10454 10443 10434 10417 10405 10396 10385 10375 10361 10345 10332 10327 10318 10309 10300 10290 10282 10275 10271 10268 10265 10264 10264 10264 10264 10266 10269 10273 10277 10282 10286 10291 10295 10299 10304 10308 10312 10315 10318 10320
10485 10467 10462 10453 10436 10424 10413 10401 10385 10375 10364 10354 10343 10329 10312 10309 10301 10295 10287 10278 10268 10262 10256 10255 10251 10250 10249 10250 10251 10253 10256 10260 10265 10270 10275 10280 10284 10289 10295 10298 10302 10305 10306 10306
10457 10455 10449 10439 10421 10409 10395 10387 10370 10358 10347 10336 10325 10314 10297 10292 10285 10279 10272 10264 10255 10247 10242 10240 10239 10236 10236 10237 10238 10241 10244 10248 10255 10260 10265 10270 10275 10281 10286 10289 10293 10294 10293 10292
10445 10442 10434 10423 10408 10397 10381 10371 10355 10344 10331 10320 10308 10299 10285 10276 10268 10258 10254 10250 10243 10233 10229 10226 10226 10223 10223 10225 10227 10230 10233 10238 10245 10250 10256 10261 10268 10274 10278 10281 10282 10281 10280 10279
10433 10423 10414 10396 10379 10376 10362 10351 10341 10330 10315 10304 10293 10282 10275 10263 10255 10247 10238 10232 10227 10220 10215 10214 10213 10211 10212 10213 10216 10219 10223 10229 10236 10242 10247 10254 10261 10266 10270 10271 10271 10269 10270 10270
10417 10405 10391 10380 10368 10350 10338 10330 10321 10311 10299 10288 10277 10266 10257 10248 10240 10232 10225 10217 10212 10205 10203 10202 10200 10199 10202 10203 10206 10209 10215 10220 10228 10234 10240 10247 10254 10259 10260 10262 10261 10263 10263 10263
10394 10380 10366 10358 10348 10334 10323 10315 10304 10293 10282 10273 10262 10252 10243 10235 10226 10218 10212 10205 10199 10193 10190 10191 10188 10189 10192 10194 10197 10200 10206 10213 10220 10227 10234 10241 10247 10251 10252 10253 10255 10256 10257 10259
10373 10361 10349 10338 10329 10317 10308 10299 10289 10279 10270 10260 10249 10239 10230 10222 10214 10205 10198 10191 10186 10182 10180 10180 10179 10180 10182 10185 10188 10192 10198 10205 10213 10220 10228 10234 10239 10243 10244 10246 10248 10251 10252 10254
10350 10340 10332 10321 10312 10302 10291 10283 10275 10264 10256 10246 10236 10226 10219 10209 10202 10192 10185 10179 10175 10172 10171 10171 10172 10172 10173 10175 10180 10186 10191 10198 10206 10215 10222 10228 10232 10235 10236 10239 10242 10244 10247 10248
10333 10322 10313 10307 10297 10286 10274 10265 10258 10250 10238 10227 10221 10212 10202 10194 10188 10181 10173 10169 10166 10163 10162 10162 10164 10164 10166 10168 10173 10179 10185 10192 10201 10209 10215 10222 10225 10227 10230 10233 10236 10239 10241 10244
10316 10306 10297 10288 10279 10269 10258 10249 10241 10234 10227 10218 10202 10196 10186 10179 10173 10166 10163 10159 10156 10154 10153 10153 10156 10156 10158 10161 10166 10171 10178 10186 10194 10202 10209 10215 10219 10221 10224 10228 10231 10234 10236 10239
10299 10291 10282 10272 10262 10253 10243 10233 10225 10217 10209 10203 10194 10182 10172 10165 10159 10155 10150 10148 10146 10144 10143 10144 10147 10147 10150 10153 10158 10163 10171 10180 10188 10196 10203 10208 10212 10215 10218 10222 10226 10229 10232 10235
10283 10274 10265 10255 10246 10236 10228 10217 10207 10199 10193 10185 10179 10170 10160 10151 10147 10142 10139 10136 10134 10133 10133 10135 10136 10138 10143 10146 10150 10156 10164 10173 10181 10189 10197 10202 10207 10210 10213 10217 10222 10226 10229 10232
10267 10257 10247 10238 10228 10220 10212 10202 10193 10184 10179 10172 10165 10155 10148 10141 10136 10131 10127 10123 10121 10120 10121 10123 10125 10130 10135 10138 10143 10149 10157 10167 10175 10183 10190 10196 10201 10205 10208 10213 10218 10222 10225 10228
10249 10240 10230 10220 10210 10203 10195 10187 10180 10173 10168 10161 10151 10141 10134 10127 10123 10117 10113 10110 10108 10106 10107 10110 10114 10120 10125 10130 10135 10142 10150 10159 10168 10176 10183 10190 10195 10200 10204 10207 10212 10216 10220 10224
10232 10223 10213 10204 10194 10184 10177 10171 10164 10157 10152 10145 10137 10128 10121 10114 10108 10104 10100 10097 10094 10093 10094 10098 10103 10110 10115 10121 10127 10134 10142 10151 10160 10169 10176 10183 10189 10194 10199 10203 10206 10211 10215 10219
10214 10205 10197 10187 10178 10170 10162 10154 10148 10142 10136 10129 10121 10114 10107 10101 10096 10091 10087 10085 10082 10082 10083 10086 10091 10099 10106 10113 10119 10126 10134 10143 10153 10161 10169 10176 10182 10187 10193 10198 10202 10206 10209 10212
10195 10187 10179 10170 10162 10154 10147 10141 10135 10128 10123 10117 10110 10103 10096 10090 10084 10079 10075 10074 10071 10071 10072 10076 10082 10089 10096 10103 10110 10117 10125 10134 10144 10153 10161 10168 10175 10181 10186 10191 10196 10200 10204 10207
10177 10169 10161 10153 10146 10139 10134 10128 10122 10117 10110 10104 10098 10092 10085 10079 10073 10067 10065 10063 10062 10062 10063 10066 10071 10079 10087 10094 10101 10108 10117 10126 10135 10145 10153 10160 10167 10174 10179 10183 10187 10191 10196 10199
10158 10152 10145 10138 10132 10126 10121 10115 10110 10104 10098 10092 10086 10079 10072 10066 10063 10058 10054 10052 10052 10052 10054 10058 10062 10069 10077 10085 10092 10100 10109 10118 10127 10136 10144 10151 10158 10165 10170 10174 10178 10184 10188 10191
10142 10136 10130 10124 10119 10113 10108 10102 10097 10092 10087 10081 10074 10067 10061 10056 10051 10047 10044 10042 10042 10042 10045 10049 10054 10060 10068 10075 10083 10091 10100 10109 10118 10126 10134 10142 10149 10154 10160 10165 10170 10175 10179 10183
10127 10121 10116 10110 10105 10100 10094 10090 10086 10081 10076 10069 10064 10057 10050 10045 10042 10038 10035 10034 10034 10035 10037 10041 10046 10052 10060 10068 10076 10084 10092 10101 10109 10118 10125 10133 10139 10145 10150 10154 10159 10165 10170 10173
10111 10106 10101 10096 10091 10087 10082 10078 10073 10069 10064 10058 10052 10046 10041 10037 10033 10029 10027 10026 10027 10028 10030 10034 10039 10045 10054 10061 10069 10076 10084 10092 10100 10108 10116 10123 10129 10136 10139 10142 10149 10155 10158 10159
10097 10092 10088 10083 10078 10074 10070 10066 10062 10058 10052 10047 10042 10036 10032 10028 10025 10022 10020 10020 10021 10022 10024 10028 10033 10040 10048 10055 10062 10070 10076 10083 10092 10098 10106 10113 10119 10125 10128 10133 10139 10142 10144 10145
10082 10079 10075 10071 10066 10062 10058 10054 10050 10047 10042 10037 10032 10028 10024 10021 10018 10016 10015 10015 10015 10017 10019 10022 10027 10033 10041 10049 10056 10062 10067 10075 10083 10090 10097 10103 10109 10114 10118 10121 10124 10127 10130 10132